Voltar ao catálogo

STARLINK-4695

AtivoComunicaçõesVLEO
NORAD 53718·PAYLOAD·🇺🇸 United States

Lançado Sep 5, 2022 de Cape Canaveral Space Force Station

Loading…

Próximas Passagens (próximas 24 horas)

TLE

AtualizadoSource: CelesTrak SupGP

Época: Sep 14, 2026, 21:45 UTC

1 53718C 22107U   26257.90673611 -.00020280  00000+0 -65219-3 0  2577
2 53718  53.1567 113.8311 0001332  90.6127 312.3438 15.31709897    10

Acompanhe STARLINK-4695 em tempo real com AllMySat

Download on the App Store